owner,sensor,date,latitude,longitude,vertical_datum,sea_water_temperature,qcFlag 
WAVCIS,ioos:station:WAVCIS:CSI03:1,2016-07-01T00:00:00Z,29.4412,-92.0613,10.0,-22.31,11144222 
WAVCIS,ioos:station:WAVCIS:CSI03:1,2016-07-01T01:00:00Z,29.4412,-92.0613,10.0,-17.48,11144222 
WAVCIS,ioos:station:WAVCIS:CSI03:1,2016-07-01T02:00:00Z,29.4412,-92.0613,10.0,-15.08,11144222 
WAVCIS,ioos:station:WAVCIS:CSI03:1,2016-07-01T03:00:00Z,29.4412,-92.0613,10.0,-11.59,11144222 
WAVCIS,ioos:station:WAVCIS:CSI03:1,2016-07-01T04:00:00Z,29.4412,-92.0613,10.0,-11.44,11144222 
WAVCIS,ioos:station:WAVCIS:CSI03:1,2016-07-01T05:00:00Z,29.4412,-92.0613,10.0,-10.27,11144222 
WAVCIS,ioos:station:WAVCIS:CSI03:1,2016-07-01T06:00:00Z,29.4412,-92.0613,10.0,-11.32,11144222 
WAVCIS,ioos:station:WAVCIS:CSI03:1,2016-07-01T07:00:00Z,29.4412,-92.0613,10.0,-13.19,11144222 
WAVCIS,ioos:station:WAVCIS:CSI03:1,2016-07-01T08:00:00Z,29.4412,-92.0613,10.0,-12.54,11144222 
WAVCIS,ioos:station:WAVCIS:CSI03:1,2016-07-01T09:00:00Z,29.4412,-92.0613,10.0,-13.35,11144222 
WAVCIS,ioos:station:WAVCIS:CSI03:1,2016-07-01T10:00:00Z,29.4412,-92.0613,10.0,-14.15,11144222 
WAVCIS,ioos:station:WAVCIS:CSI03:1,2016-07-01T11:00:00Z,29.4412,-92.0613,10.0,-14.08,11144222 
WAVCIS,ioos:station:WAVCIS:CSI03:1,2016-07-01T12:00:00Z,29.4412,-92.0613,10.0,-13.63,11144222 
WAVCIS,ioos:station:WAVCIS:CSI03:1,2016-07-01T13:00:00Z,29.4412,-92.0613,10.0,-13.38,11144222 
WAVCIS,ioos:station:WAVCIS:CSI03:1,2016-07-01T14:00:00Z,29.4412,-92.0613,10.0,-13.46,11144222 
WAVCIS,ioos:station:WAVCIS:CSI03:1,2016-07-01T15:00:00Z,29.4412,-92.0613,10.0,-14.32,11144222 
WAVCIS,ioos:station:WAVCIS:CSI03:1,2016-07-01T16:00:00Z,29.4412,-92.0613,10.0,-14.0,11144222 
WAVCIS,ioos:station:WAVCIS:CSI03:1,2016-07-01T17:00:00Z,29.4412,-92.0613,10.0,-12.68,11144222 
WAVCIS,ioos:station:WAVCIS:CSI03:1,2016-07-01T18:00:00Z,29.4412,-92.0613,10.0,-10.45,11144222 
WAVCIS,ioos:station:WAVCIS:CSI03:1,2016-07-01T19:00:00Z,29.4412,-92.0613,10.0,-11.76,11144222 
WAVCIS,ioos:station:WAVCIS:CSI03:1,2016-07-01T20:00:00Z,29.4412,-92.0613,10.0,-11.54,11144222 
WAVCIS,ioos:station:WAVCIS:CSI03:1,2016-07-01T21:00:00Z,29.4412,-92.0613,10.0,-10.37,11144222 
WAVCIS,ioos:station:WAVCIS:CSI03:1,2016-07-01T22:00:00Z,29.4412,-92.0613,10.0,-10.36,11144222 
WAVCIS,ioos:station:WAVCIS:CSI03:1,2016-07-01T23:00:00Z,29.4412,-92.0613,10.0,-9.71,11144222 
WAVCIS,ioos:station:WAVCIS:CSI03:1,2016-07-02T00:00:00Z,29.4412,-92.0613,10.0,-9.93,11144222 
WAVCIS,ioos:station:WAVCIS:CSI03:1,2016-07-02T01:00:00Z,29.4412,-92.0613,10.0,-10.92,11144222 
WAVCIS,ioos:station:WAVCIS:CSI03:1,2016-07-02T02:00:00Z,29.4412,-92.0613,10.0,-11.18,11144222 
WAVCIS,ioos:station:WAVCIS:CSI03:1,2016-07-02T03:00:00Z,29.4412,-92.0613,10.0,-11.13,11144222 
WAVCIS,ioos:station:WAVCIS:CSI03:1,2016-07-02T04:00:00Z,29.4412,-92.0613,10.0,-10.85,11144222 
WAVCIS,ioos:station:WAVCIS:CSI03:1,2016-07-02T05:00:00Z,29.4412,-92.0613,10.0,-11.64,11144222 
WAVCIS,ioos:station:WAVCIS:CSI03:1,2016-07-02T06:00:00Z,29.4412,-92.0613,10.0,-10.93,11144222 
WAVCIS,ioos:station:WAVCIS:CSI03:1,2016-07-02T07:00:00Z,29.4412,-92.0613,10.0,-11.23,11144222 
WAVCIS,ioos:station:WAVCIS:CSI03:1,2016-07-02T08:00:00Z,29.4412,-92.0613,10.0,-11.61,11144222 
WAVCIS,ioos:station:WAVCIS:CSI03:1,2016-07-02T09:00:00Z,29.4412,-92.0613,10.0,-11.6,11144222 
WAVCIS,ioos:station:WAVCIS:CSI03:1,2016-07-02T10:00:00Z,29.4412,-92.0613,10.0,-11.98,11144222 
WAVCIS,ioos:station:WAVCIS:CSI03:1,2016-07-02T11:00:00Z,29.4412,-92.0613,10.0,-11.82,11144222 
WAVCIS,ioos:station:WAVCIS:CSI03:1,2016-07-02T12:00:00Z,29.4412,-92.0613,10.0,-12.35,11144222 
WAVCIS,ioos:station:WAVCIS:CSI03:1,2016-07-02T13:00:00Z,29.4412,-92.0613,10.0,-12.0,11144222 
WAVCIS,ioos:station:WAVCIS:CSI03:1,2016-07-02T14:00:00Z,29.4412,-92.0613,10.0,-12.05,11144222 
WAVCIS,ioos:station:WAVCIS:CSI03:1,2016-07-02T15:00:00Z,29.4412,-92.0613,10.0,-12.06,11144222 
WAVCIS,ioos:station:WAVCIS:CSI03:1,2016-07-02T16:00:00Z,29.4412,-92.0613,10.0,-12.16,11144222 
WAVCIS,ioos:station:WAVCIS:CSI03:1,2016-07-02T17:00:00Z,29.4412,-92.0613,10.0,-12.23,11144222 
WAVCIS,ioos:station:WAVCIS:CSI03:1,2016-07-02T18:00:00Z,29.4412,-92.0613,10.0,-12.52,11144222 
WAVCIS,ioos:station:WAVCIS:CSI03:1,2016-07-02T19:00:00Z,29.4412,-92.0613,10.0,-13.16,11144222 
WAVCIS,ioos:station:WAVCIS:CSI03:1,2016-07-02T20:00:00Z,29.4412,-92.0613,10.0,-13.29,11144222 
WAVCIS,ioos:station:WAVCIS:CSI03:1,2016-07-02T21:00:00Z,29.4412,-92.0613,10.0,-12.7,11144222 
WAVCIS,ioos:station:WAVCIS:CSI03:1,2016-07-02T22:00:00Z,29.4412,-92.0613,10.0,-12.18,11144222 
WAVCIS,ioos:station:WAVCIS:CSI03:1,2016-07-02T23:00:00Z,29.4412,-92.0613,10.0,-10.72,11144222 
WAVCIS,ioos:station:WAVCIS:CSI03:1,2016-07-03T00:00:00Z,29.4412,-92.0613,10.0,-10.85,11144222 
WAVCIS,ioos:station:WAVCIS:CSI03:1,2016-07-03T01:00:00Z,29.4412,-92.0613,10.0,-11.79,11144222 
WAVCIS,ioos:station:WAVCIS:CSI03:1,2016-07-03T02:00:00Z,29.4412,-92.0613,10.0,-11.57,11144222 
WAVCIS,ioos:station:WAVCIS:CSI03:1,2016-07-03T03:00:00Z,29.4412,-92.0613,10.0,-11.54,11144222 
WAVCIS,ioos:station:WAVCIS:CSI03:1,2016-07-03T04:00:00Z,29.4412,-92.0613,10.0,-11.35,11144222 
WAVCIS,ioos:station:WAVCIS:CSI03:1,2016-07-03T05:00:00Z,29.4412,-92.0613,10.0,-12.37,11144222 
WAVCIS,ioos:station:WAVCIS:CSI03:1,2016-07-03T06:00:00Z,29.4412,-92.0613,10.0,-10.89,11144222 
WAVCIS,ioos:station:WAVCIS:CSI03:1,2016-07-03T07:00:00Z,29.4412,-92.0613,10.0,-11.69,11144222 
WAVCIS,ioos:station:WAVCIS:CSI03:1,2016-07-03T08:00:00Z,29.4412,-92.0613,10.0,-12.12,11144222 
WAVCIS,ioos:station:WAVCIS:CSI03:1,2016-07-03T09:00:00Z,29.4412,-92.0613,10.0,-12.58,11144222 
WAVCIS,ioos:station:WAVCIS:CSI03:1,2016-07-03T10:00:00Z,29.4412,-92.0613,10.0,-12.36,11144222 
WAVCIS,ioos:station:WAVCIS:CSI03:1,2016-07-03T11:00:00Z,29.4412,-92.0613,10.0,-12.09,11144222 
WAVCIS,ioos:station:WAVCIS:CSI03:1,2016-07-03T12:00:00Z,29.4412,-92.0613,10.0,-12.17,11144222 
WAVCIS,ioos:station:WAVCIS:CSI03:1,2016-07-03T13:00:00Z,29.4412,-92.0613,10.0,-12.28,11144222 
WAVCIS,ioos:station:WAVCIS:CSI03:1,2016-07-03T14:00:00Z,29.4412,-92.0613,10.0,-12.14,11144222 
WAVCIS,ioos:station:WAVCIS:CSI03:1,2016-07-03T15:00:00Z,29.4412,-92.0613,10.0,-12.31,11144222 
WAVCIS,ioos:station:WAVCIS:CSI03:1,2016-07-03T16:00:00Z,29.4412,-92.0613,10.0,-11.89,11144222 
WAVCIS,ioos:station:WAVCIS:CSI03:1,2016-07-03T17:00:00Z,29.4412,-92.0613,10.0,-10.98,11144222 
WAVCIS,ioos:station:WAVCIS:CSI03:1,2016-07-03T18:00:00Z,29.4412,-92.0613,10.0,-9.47,11144222 
WAVCIS,ioos:station:WAVCIS:CSI03:1,2016-07-03T19:00:00Z,29.4412,-92.0613,10.0,-10.79,11144222 
WAVCIS,ioos:station:WAVCIS:CSI03:1,2016-07-03T20:00:00Z,29.4412,-92.0613,10.0,-9.26,11144222 
WAVCIS,ioos:station:WAVCIS:CSI03:1,2016-07-03T21:00:00Z,29.4412,-92.0613,10.0,-8.68,11144222 
WAVCIS,ioos:station:WAVCIS:CSI03:1,2016-07-03T22:00:00Z,29.4412,-92.0613,10.0,-9.85,11144222 
WAVCIS,ioos:station:WAVCIS:CSI03:1,2016-07-03T23:00:00Z,29.4412,-92.0613,10.0,-8.7,11144222 
WAVCIS,ioos:station:WAVCIS:CSI03:1,2016-07-04T00:00:00Z,29.4412,-92.0613,10.0,-8.98,11144222 
WAVCIS,ioos:station:WAVCIS:CSI03:1,2016-07-04T01:00:00Z,29.4412,-92.0613,10.0,-9.39,11144222 
WAVCIS,ioos:station:WAVCIS:CSI03:1,2016-07-04T02:00:00Z,29.4412,-92.0613,10.0,-10.61,11144222 
WAVCIS,ioos:station:WAVCIS:CSI03:1,2016-07-04T03:00:00Z,29.4412,-92.0613,10.0,-9.69,11144222 
WAVCIS,ioos:station:WAVCIS:CSI03:1,2016-07-04T04:00:00Z,29.4412,-92.0613,10.0,-9.61,11144222 
WAVCIS,ioos:station:WAVCIS:CSI03:1,2016-07-04T05:00:00Z,29.4412,-92.0613,10.0,-10.18,11144222 
WAVCIS,ioos:station:WAVCIS:CSI03:1,2016-07-04T06:00:00Z,29.4412,-92.0613,10.0,-10.33,11144222 
WAVCIS,ioos:station:WAVCIS:CSI03:1,2016-07-04T07:00:00Z,29.4412,-92.0613,10.0,-9.67,11144222 
WAVCIS,ioos:station:WAVCIS:CSI03:1,2016-07-04T08:00:00Z,29.4412,-92.0613,10.0,-9.9,11144222 
WAVCIS,ioos:station:WAVCIS:CSI03:1,2016-07-04T09:00:00Z,29.4412,-92.0613,10.0,-8.75,11144222 
WAVCIS,ioos:station:WAVCIS:CSI03:1,2016-07-04T10:00:00Z,29.4412,-92.0613,10.0,-8.28,11144222 
WAVCIS,ioos:station:WAVCIS:CSI03:1,2016-07-04T11:00:00Z,29.4412,-92.0613,10.0,-8.25,11144222 
WAVCIS,ioos:station:WAVCIS:CSI03:1,2016-07-04T12:00:00Z,29.4412,-92.0613,10.0,-8.89,11144222 
WAVCIS,ioos:station:WAVCIS:CSI03:1,2016-07-04T13:00:00Z,29.4412,-92.0613,10.0,-8.56,11144222 
WAVCIS,ioos:station:WAVCIS:CSI03:1,2016-07-04T14:00:00Z,29.4412,-92.0613,10.0,-8.25,11144222 
WAVCIS,ioos:station:WAVCIS:CSI03:1,2016-07-04T15:00:00Z,29.4412,-92.0613,10.0,-8.42,11144222 
WAVCIS,ioos:station:WAVCIS:CSI03:1,2016-07-04T16:00:00Z,29.4412,-92.0613,10.0,-8.69,11144222 
WAVCIS,ioos:station:WAVCIS:CSI03:1,2016-07-04T17:00:00Z,29.4412,-92.0613,10.0,-9.34,11144222 
WAVCIS,ioos:station:WAVCIS:CSI03:1,2016-07-04T18:00:00Z,29.4412,-92.0613,10.0,-8.36,11144222 
WAVCIS,ioos:station:WAVCIS:CSI03:1,2016-07-04T19:00:00Z,29.4412,-92.0613,10.0,-8.14,11144222 
WAVCIS,ioos:station:WAVCIS:CSI03:1,2016-07-04T20:00:00Z,29.4412,-92.0613,10.0,-9.28,11144222 
WAVCIS,ioos:station:WAVCIS:CSI03:1,2016-07-04T21:00:00Z,29.4412,-92.0613,10.0,-8.49,11144222 
WAVCIS,ioos:station:WAVCIS:CSI03:1,2016-07-04T22:00:00Z,29.4412,-92.0613,10.0,-7.739,11144222 
WAVCIS,ioos:station:WAVCIS:CSI03:1,2016-07-04T23:00:00Z,29.4412,-92.0613,10.0,-6.856,11144222 
WAVCIS,ioos:station:WAVCIS:CSI03:1,2016-07-05T00:00:00Z,29.4412,-92.0613,10.0,-5.9,11144222 
WAVCIS,ioos:station:WAVCIS:CSI03:1,2016-07-05T01:00:00Z,29.4412,-92.0613,10.0,-8.11,11144222 
WAVCIS,ioos:station:WAVCIS:CSI03:1,2016-07-05T02:00:00Z,29.4412,-92.0613,10.0,-8.77,11144222 
WAVCIS,ioos:station:WAVCIS:CSI03:1,2016-07-05T03:00:00Z,29.4412,-92.0613,10.0,-7.714,11144222 
WAVCIS,ioos:station:WAVCIS:CSI03:1,2016-07-05T04:00:00Z,29.4412,-92.0613,10.0,-8.5,11144222 
WAVCIS,ioos:station:WAVCIS:CSI03:1,2016-07-05T05:00:00Z,29.4412,-92.0613,10.0,-8.32,11144222 
WAVCIS,ioos:station:WAVCIS:CSI03:1,2016-07-05T06:00:00Z,29.4412,-92.0613,10.0,-8.29,11144222 
WAVCIS,ioos:station:WAVCIS:CSI03:1,2016-07-05T07:00:00Z,29.4412,-92.0613,10.0,-8.54,11144222 
WAVCIS,ioos:station:WAVCIS:CSI03:1,2016-07-05T08:00:00Z,29.4412,-92.0613,10.0,-8.67,11144222 
WAVCIS,ioos:station:WAVCIS:CSI03:1,2016-07-05T09:00:00Z,29.4412,-92.0613,10.0,-8.34,11144222 
WAVCIS,ioos:station:WAVCIS:CSI03:1,2016-07-05T10:00:00Z,29.4412,-92.0613,10.0,-5.624,11144222 
WAVCIS,ioos:station:WAVCIS:CSI03:1,2016-07-05T11:00:00Z,29.4412,-92.0613,10.0,-4.939,11144222 
WAVCIS,ioos:station:WAVCIS:CSI03:1,2016-07-05T12:00:00Z,29.4412,-92.0613,10.0,-6.013,11144222 
WAVCIS,ioos:station:WAVCIS:CSI03:1,2016-07-05T13:00:00Z,29.4412,-92.0613,10.0,-6.171,11144222 
WAVCIS,ioos:station:WAVCIS:CSI03:1,2016-07-05T14:00:00Z,29.4412,-92.0613,10.0,-5.365,11144222 
WAVCIS,ioos:station:WAVCIS:CSI03:1,2016-07-05T15:00:00Z,29.4412,-92.0613,10.0,-7.664,11144222 
WAVCIS,ioos:station:WAVCIS:CSI03:1,2016-07-05T16:00:00Z,29.4412,-92.0613,10.0,-8.9,11144222 
WAVCIS,ioos:station:WAVCIS:CSI03:1,2016-07-05T17:00:00Z,29.4412,-92.0613,10.0,-7.847,11144222 
WAVCIS,ioos:station:WAVCIS:CSI03:1,2016-07-05T18:00:00Z,29.4412,-92.0613,10.0,-7.655,11144222 
WAVCIS,ioos:station:WAVCIS:CSI03:1,2016-07-05T19:00:00Z,29.4412,-92.0613,10.0,-10.34,11144222 
WAVCIS,ioos:station:WAVCIS:CSI03:1,2016-07-05T20:00:00Z,29.4412,-92.0613,10.0,-7.303,11144222 
WAVCIS,ioos:station:WAVCIS:CSI03:1,2016-07-05T21:00:00Z,29.4412,-92.0613,10.0,-7.538,11144222 
WAVCIS,ioos:station:WAVCIS:CSI03:1,2016-07-05T22:00:00Z,29.4412,-92.0613,10.0,-7.952,11144222 
WAVCIS,ioos:station:WAVCIS:CSI03:1,2016-07-05T23:00:00Z,29.4412,-92.0613,10.0,-9.35,11144222 
WAVCIS,ioos:station:WAVCIS:CSI03:1,2016-07-06T00:00:00Z,29.4412,-92.0613,10.0,-8.43,11144222 
WAVCIS,ioos:station:WAVCIS:CSI03:1,2016-07-06T01:00:00Z,29.4412,-92.0613,10.0,-8.41,11144222 
WAVCIS,ioos:station:WAVCIS:CSI03:1,2016-07-06T02:00:00Z,29.4412,-92.0613,10.0,-6.635,11144222 
WAVCIS,ioos:station:WAVCIS:CSI03:1,2016-07-06T03:00:00Z,29.4412,-92.0613,10.0,-8.9,11144222 
WAVCIS,ioos:station:WAVCIS:CSI03:1,2016-07-06T04:00:00Z,29.4412,-92.0613,10.0,-6.734,11144222 
WAVCIS,ioos:station:WAVCIS:CSI03:1,2016-07-06T05:00:00Z,29.4412,-92.0613,10.0,-8.0,11144222 
WAVCIS,ioos:station:WAVCIS:CSI03:1,2016-07-06T06:00:00Z,29.4412,-92.0613,10.0,-7.484,11144222 
WAVCIS,ioos:station:WAVCIS:CSI03:1,2016-07-06T07:00:00Z,29.4412,-92.0613,10.0,-5.348,11144222 
WAVCIS,ioos:station:WAVCIS:CSI03:1,2016-07-06T08:00:00Z,29.4412,-92.0613,10.0,-5.726,11144222 
WAVCIS,ioos:station:WAVCIS:CSI03:1,2016-07-06T09:00:00Z,29.4412,-92.0613,10.0,-5.242,11144222 
WAVCIS,ioos:station:WAVCIS:CSI03:1,2016-07-06T10:00:00Z,29.4412,-92.0613,10.0,-6.681,11144222 
WAVCIS,ioos:station:WAVCIS:CSI03:1,2016-07-06T11:00:00Z,29.4412,-92.0613,10.0,-6.518,11144222 
WAVCIS,ioos:station:WAVCIS:CSI03:1,2016-07-06T12:00:00Z,29.4412,-92.0613,10.0,-7.125,11144222 
WAVCIS,ioos:station:WAVCIS:CSI03:1,2016-07-06T13:00:00Z,29.4412,-92.0613,10.0,-6.446,11144222 
WAVCIS,ioos:station:WAVCIS:CSI03:1,2016-07-06T14:00:00Z,29.4412,-92.0613,10.0,-4.1,11144222 
WAVCIS,ioos:station:WAVCIS:CSI03:1,2016-07-06T15:00:00Z,29.4412,-92.0613,10.0,-4.198,11144222 
WAVCIS,ioos:station:WAVCIS:CSI03:1,2016-07-06T16:00:00Z,29.4412,-92.0613,10.0,-3.444,11144222 
WAVCIS,ioos:station:WAVCIS:CSI03:1,2016-07-06T17:00:00Z,29.4412,-92.0613,10.0,-2.987,11144222 
WAVCIS,ioos:station:WAVCIS:CSI03:1,2016-07-06T18:00:00Z,29.4412,-92.0613,10.0,-4.234,11144222 
WAVCIS,ioos:station:WAVCIS:CSI03:1,2016-07-06T19:00:00Z,29.4412,-92.0613,10.0,-4.826,11144222 
WAVCIS,ioos:station:WAVCIS:CSI03:1,2016-07-06T20:00:00Z,29.4412,-92.0613,10.0,-7.897,11144222 
WAVCIS,ioos:station:WAVCIS:CSI03:1,2016-07-06T21:00:00Z,29.4412,-92.0613,10.0,-7.971,11144222 
WAVCIS,ioos:station:WAVCIS:CSI03:1,2016-07-06T22:00:00Z,29.4412,-92.0613,10.0,-5.253,11144222 
WAVCIS,ioos:station:WAVCIS:CSI03:1,2016-07-06T23:00:00Z,29.4412,-92.0613,10.0,-5.616,11144222 
WAVCIS,ioos:station:WAVCIS:CSI03:1,2016-07-07T00:00:00Z,29.4412,-92.0613,10.0,-8.14,11144222 
WAVCIS,ioos:station:WAVCIS:CSI03:1,2016-07-07T01:00:00Z,29.4412,-92.0613,10.0,-4.46,11144222 
WAVCIS,ioos:station:WAVCIS:CSI03:1,2016-07-07T02:00:00Z,29.4412,-92.0613,10.0,-5.862,11144222 
WAVCIS,ioos:station:WAVCIS:CSI03:1,2016-07-07T03:00:00Z,29.4412,-92.0613,10.0,-6.114,11144222 
WAVCIS,ioos:station:WAVCIS:CSI03:1,2016-07-07T04:00:00Z,29.4412,-92.0613,10.0,-6.764,11144222 
WAVCIS,ioos:station:WAVCIS:CSI03:1,2016-07-07T05:00:00Z,29.4412,-92.0613,10.0,-7.274,11144222 
WAVCIS,ioos:station:WAVCIS:CSI03:1,2016-07-07T06:00:00Z,29.4412,-92.0613,10.0,-7.154,11144222 
WAVCIS,ioos:station:WAVCIS:CSI03:1,2016-07-07T07:00:00Z,29.4412,-92.0613,10.0,-5.963,11144222 
WAVCIS,ioos:station:WAVCIS:CSI03:1,2016-07-07T08:00:00Z,29.4412,-92.0613,10.0,-6.137,11144222 
WAVCIS,ioos:station:WAVCIS:CSI03:1,2016-07-07T09:00:00Z,29.4412,-92.0613,10.0,-5.77,11144222 
WAVCIS,ioos:station:WAVCIS:CSI03:1,2016-07-07T10:00:00Z,29.4412,-92.0613,10.0,-6.017,11144222 
WAVCIS,ioos:station:WAVCIS:CSI03:1,2016-07-07T11:00:00Z,29.4412,-92.0613,10.0,-8.12,11144222 
WAVCIS,ioos:station:WAVCIS:CSI03:1,2016-07-07T12:00:00Z,29.4412,-92.0613,10.0,-7.284,11144222 
WAVCIS,ioos:station:WAVCIS:CSI03:1,2016-07-07T13:00:00Z,29.4412,-92.0613,10.0,-7.065,11144222 
WAVCIS,ioos:station:WAVCIS:CSI03:1,2016-07-07T14:00:00Z,29.4412,-92.0613,10.0,-8.8,11144222 
WAVCIS,ioos:station:WAVCIS:CSI03:1,2016-07-07T15:00:00Z,29.4412,-92.0613,10.0,-8.31,11144222 
WAVCIS,ioos:station:WAVCIS:CSI03:1,2016-07-07T16:00:00Z,29.4412,-92.0613,10.0,-10.16,11144222 
WAVCIS,ioos:station:WAVCIS:CSI03:1,2016-07-07T17:00:00Z,29.4412,-92.0613,10.0,-8.76,11144222 
WAVCIS,ioos:station:WAVCIS:CSI03:1,2016-07-07T18:00:00Z,29.4412,-92.0613,10.0,-9.22,11144222 
WAVCIS,ioos:station:WAVCIS:CSI03:1,2016-07-07T19:00:00Z,29.4412,-92.0613,10.0,-8.84,11144222 
WAVCIS,ioos:station:WAVCIS:CSI03:1,2016-07-07T20:00:00Z,29.4412,-92.0613,10.0,-9.67,11144222 
WAVCIS,ioos:station:WAVCIS:CSI03:1,2016-07-07T21:00:00Z,29.4412,-92.0613,10.0,-9.4,11144222 
WAVCIS,ioos:station:WAVCIS:CSI03:1,2016-07-07T22:00:00Z,29.4412,-92.0613,10.0,-9.81,11144222 
WAVCIS,ioos:station:WAVCIS:CSI03:1,2016-07-07T23:00:00Z,29.4412,-92.0613,10.0,-9.51,11144222 
WAVCIS,ioos:station:WAVCIS:CSI03:1,2016-07-08T00:00:00Z,29.4412,-92.0613,10.0,-9.18,11144222 
WAVCIS,ioos:station:WAVCIS:CSI03:1,2016-07-08T01:00:00Z,29.4412,-92.0613,10.0,-8.81,11144222 
WAVCIS,ioos:station:WAVCIS:CSI03:1,2016-07-08T02:00:00Z,29.4412,-92.0613,10.0,-10.14,11144222 
WAVCIS,ioos:station:WAVCIS:CSI03:1,2016-07-08T03:00:00Z,29.4412,-92.0613,10.0,-9.32,11144222 
WAVCIS,ioos:station:WAVCIS:CSI03:1,2016-07-08T04:00:00Z,29.4412,-92.0613,10.0,-10.74,11144222 
WAVCIS,ioos:station:WAVCIS:CSI03:1,2016-07-08T05:00:00Z,29.4412,-92.0613,10.0,-10.58,11144222 
WAVCIS,ioos:station:WAVCIS:CSI03:1,2016-07-08T06:00:00Z,29.4412,-92.0613,10.0,-11.94,11144222 
WAVCIS,ioos:station:WAVCIS:CSI03:1,2016-07-08T07:00:00Z,29.4412,-92.0613,10.0,-11.34,11144222 
WAVCIS,ioos:station:WAVCIS:CSI03:1,2016-07-08T08:00:00Z,29.4412,-92.0613,10.0,-11.13,11144222 
WAVCIS,ioos:station:WAVCIS:CSI03:1,2016-07-08T09:00:00Z,29.4412,-92.0613,10.0,-8.69,11144222 
WAVCIS,ioos:station:WAVCIS:CSI03:1,2016-07-08T10:00:00Z,29.4412,-92.0613,10.0,-9.21,11144222 
WAVCIS,ioos:station:WAVCIS:CSI03:1,2016-07-08T11:00:00Z,29.4412,-92.0613,10.0,-9.44,11144222 
WAVCIS,ioos:station:WAVCIS:CSI03:1,2016-07-08T12:00:00Z,29.4412,-92.0613,10.0,-8.48,11144222 
WAVCIS,ioos:station:WAVCIS:CSI03:1,2016-07-08T13:00:00Z,29.4412,-92.0613,10.0,-9.71,11144222 
WAVCIS,ioos:station:WAVCIS:CSI03:1,2016-07-08T14:00:00Z,29.4412,-92.0613,10.0,-10.19,11144222 
WAVCIS,ioos:station:WAVCIS:CSI03:1,2016-07-08T15:00:00Z,29.4412,-92.0613,10.0,-10.22,11144222 
WAVCIS,ioos:station:WAVCIS:CSI03:1,2016-07-08T16:00:00Z,29.4412,-92.0613,10.0,-10.25,11144222 
WAVCIS,ioos:station:WAVCIS:CSI03:1,2016-07-08T17:00:00Z,29.4412,-92.0613,10.0,-10.41,11144222 
WAVCIS,ioos:station:WAVCIS:CSI03:1,2016-07-08T18:00:00Z,29.4412,-92.0613,10.0,-12.03,11144222 
WAVCIS,ioos:station:WAVCIS:CSI03:1,2016-07-08T19:00:00Z,29.4412,-92.0613,10.0,-12.13,11144222 
WAVCIS,ioos:station:WAVCIS:CSI03:1,2016-07-08T20:00:00Z,29.4412,-92.0613,10.0,-11.88,11144222 
WAVCIS,ioos:station:WAVCIS:CSI03:1,2016-07-08T21:00:00Z,29.4412,-92.0613,10.0,-16.33,11144222 
WAVCIS,ioos:station:WAVCIS:CSI03:1,2016-07-08T22:00:00Z,29.4412,-92.0613,10.0,-19.39,11144222 
WAVCIS,ioos:station:WAVCIS:CSI03:1,2016-07-08T23:00:00Z,29.4412,-92.0613,10.0,-16.85,11144222 
WAVCIS,ioos:station:WAVCIS:CSI03:1,2016-07-13T22:00:00Z,29.4412,-92.0613,10.0,-10.84,11144222 
WAVCIS,ioos:station:WAVCIS:CSI03:1,2016-07-13T23:00:00Z,29.4412,-92.0613,10.0,-11.61,11144222 
WAVCIS,ioos:station:WAVCIS:CSI03:1,2016-07-14T00:00:00Z,29.4412,-92.0613,10.0,-10.57,11144222 
WAVCIS,ioos:station:WAVCIS:CSI03:1,2016-07-14T01:00:00Z,29.4412,-92.0613,10.0,-11.22,11144222 
WAVCIS,ioos:station:WAVCIS:CSI03:1,2016-07-14T02:00:00Z,29.4412,-92.0613,10.0,-11.49,11144222 
WAVCIS,ioos:station:WAVCIS:CSI03:1,2016-07-14T03:00:00Z,29.4412,-92.0613,10.0,-12.05,11144222 
WAVCIS,ioos:station:WAVCIS:CSI03:1,2016-07-14T04:00:00Z,29.4412,-92.0613,10.0,-11.16,11144222 
WAVCIS,ioos:station:WAVCIS:CSI03:1,2016-07-14T05:00:00Z,29.4412,-92.0613,10.0,-11.19,11144222 
WAVCIS,ioos:station:WAVCIS:CSI03:1,2016-07-14T06:00:00Z,29.4412,-92.0613,10.0,-11.15,11144222 
WAVCIS,ioos:station:WAVCIS:CSI03:1,2016-07-14T07:00:00Z,29.4412,-92.0613,10.0,-10.82,11144222 
WAVCIS,ioos:station:WAVCIS:CSI03:1,2016-07-14T08:00:00Z,29.4412,-92.0613,10.0,-10.81,11144222 
WAVCIS,ioos:station:WAVCIS:CSI03:1,2016-07-14T09:00:00Z,29.4412,-92.0613,10.0,-10.98,11144222 
WAVCIS,ioos:station:WAVCIS:CSI03:1,2016-07-14T10:00:00Z,29.4412,-92.0613,10.0,-10.84,11144222 
WAVCIS,ioos:station:WAVCIS:CSI03:1,2016-07-14T11:00:00Z,29.4412,-92.0613,10.0,-10.12,11144222 
WAVCIS,ioos:station:WAVCIS:CSI03:1,2016-07-14T12:00:00Z,29.4412,-92.0613,10.0,-9.28,11144222 
WAVCIS,ioos:station:WAVCIS:CSI03:1,2016-07-14T13:00:00Z,29.4412,-92.0613,10.0,-9.96,11144222 
WAVCIS,ioos:station:WAVCIS:CSI03:1,2016-07-14T14:00:00Z,29.4412,-92.0613,10.0,-10.7,11144222 
WAVCIS,ioos:station:WAVCIS:CSI03:1,2016-07-14T15:00:00Z,29.4412,-92.0613,10.0,-10.32,11144222 
WAVCIS,ioos:station:WAVCIS:CSI03:1,2016-07-14T16:00:00Z,29.4412,-92.0613,10.0,-10.32,11144222 
WAVCIS,ioos:station:WAVCIS:CSI03:1,2016-07-14T17:00:00Z,29.4412,-92.0613,10.0,-10.79,11144222 
WAVCIS,ioos:station:WAVCIS:CSI03:1,2016-07-14T18:00:00Z,29.4412,-92.0613,10.0,-11.1,11144222 
WAVCIS,ioos:station:WAVCIS:CSI03:1,2016-07-14T19:00:00Z,29.4412,-92.0613,10.0,-11.65,11144222 
WAVCIS,ioos:station:WAVCIS:CSI03:1,2016-07-14T20:00:00Z,29.4412,-92.0613,10.0,-11.37,11144222 
WAVCIS,ioos:station:WAVCIS:CSI03:1,2016-07-14T21:00:00Z,29.4412,-92.0613,10.0,-11.8,11144222 
WAVCIS,ioos:station:WAVCIS:CSI03:1,2016-07-14T22:00:00Z,29.4412,-92.0613,10.0,-10.92,11144222 
WAVCIS,ioos:station:WAVCIS:CSI03:1,2016-07-14T23:00:00Z,29.4412,-92.0613,10.0,-10.55,11144222 
WAVCIS,ioos:station:WAVCIS:CSI03:1,2016-07-15T00:00:00Z,29.4412,-92.0613,10.0,-11.39,11144222 
WAVCIS,ioos:station:WAVCIS:CSI03:1,2016-07-15T01:00:00Z,29.4412,-92.0613,10.0,-11.26,11144222 
WAVCIS,ioos:station:WAVCIS:CSI03:1,2016-07-15T02:00:00Z,29.4412,-92.0613,10.0,-11.33,11144222 
WAVCIS,ioos:station:WAVCIS:CSI03:1,2016-07-15T03:00:00Z,29.4412,-92.0613,10.0,-11.54,11144222 
WAVCIS,ioos:station:WAVCIS:CSI03:1,2016-07-15T04:00:00Z,29.4412,-92.0613,10.0,-11.73,11144222 
WAVCIS,ioos:station:WAVCIS:CSI03:1,2016-07-15T05:00:00Z,29.4412,-92.0613,10.0,-12.86,11144222 
WAVCIS,ioos:station:WAVCIS:CSI03:1,2016-07-15T06:00:00Z,29.4412,-92.0613,10.0,-12.77,11144222 
WAVCIS,ioos:station:WAVCIS:CSI03:1,2016-07-15T07:00:00Z,29.4412,-92.0613,10.0,-12.85,11144222 
WAVCIS,ioos:station:WAVCIS:CSI03:1,2016-07-15T08:00:00Z,29.4412,-92.0613,10.0,-12.37,11144222 
WAVCIS,ioos:station:WAVCIS:CSI03:1,2016-07-15T09:00:00Z,29.4412,-92.0613,10.0,-12.92,11144222 
WAVCIS,ioos:station:WAVCIS:CSI03:1,2016-07-15T10:00:00Z,29.4412,-92.0613,10.0,-12.42,11144222 
WAVCIS,ioos:station:WAVCIS:CSI03:1,2016-07-15T11:00:00Z,29.4412,-92.0613,10.0,-11.57,11144222 
WAVCIS,ioos:station:WAVCIS:CSI03:1,2016-07-15T12:00:00Z,29.4412,-92.0613,10.0,-11.22,11144222 
WAVCIS,ioos:station:WAVCIS:CSI03:1,2016-07-15T13:00:00Z,29.4412,-92.0613,10.0,-11.11,11144222 
WAVCIS,ioos:station:WAVCIS:CSI03:1,2016-07-15T14:00:00Z,29.4412,-92.0613,10.0,-11.03,11144222 
WAVCIS,ioos:station:WAVCIS:CSI03:1,2016-07-15T15:00:00Z,29.4412,-92.0613,10.0,-10.53,11144222 
WAVCIS,ioos:station:WAVCIS:CSI03:1,2016-07-15T16:00:00Z,29.4412,-92.0613,10.0,-9.86,11144222 
WAVCIS,ioos:station:WAVCIS:CSI03:1,2016-07-15T17:00:00Z,29.4412,-92.0613,10.0,-9.75,11144222 
WAVCIS,ioos:station:WAVCIS:CSI03:1,2016-07-15T18:00:00Z,29.4412,-92.0613,10.0,-8.17,11144222 
WAVCIS,ioos:station:WAVCIS:CSI03:1,2016-07-15T19:00:00Z,29.4412,-92.0613,10.0,-7.943,11144222 
WAVCIS,ioos:station:WAVCIS:CSI03:1,2016-07-15T20:00:00Z,29.4412,-92.0613,10.0,-8.2,11144222 
WAVCIS,ioos:station:WAVCIS:CSI03:1,2016-07-15T21:00:00Z,29.4412,-92.0613,10.0,-9.84,11144222 
WAVCIS,ioos:station:WAVCIS:CSI03:1,2016-07-15T22:00:00Z,29.4412,-92.0613,10.0,-10.08,11144222 
WAVCIS,ioos:station:WAVCIS:CSI03:1,2016-07-15T23:00:00Z,29.4412,-92.0613,10.0,-10.69,11144222 
WAVCIS,ioos:station:WAVCIS:CSI03:1,2016-07-16T00:00:00Z,29.4412,-92.0613,10.0,-10.62,11144222 
WAVCIS,ioos:station:WAVCIS:CSI03:1,2016-07-16T01:00:00Z,29.4412,-92.0613,10.0,-11.54,11144222 
WAVCIS,ioos:station:WAVCIS:CSI03:1,2016-07-16T02:00:00Z,29.4412,-92.0613,10.0,-12.33,11144222 
WAVCIS,ioos:station:WAVCIS:CSI03:1,2016-07-16T03:00:00Z,29.4412,-92.0613,10.0,-12.05,11144222 
WAVCIS,ioos:station:WAVCIS:CSI03:1,2016-07-16T04:00:00Z,29.4412,-92.0613,10.0,-12.1,11144222 
WAVCIS,ioos:station:WAVCIS:CSI03:1,2016-07-16T05:00:00Z,29.4412,-92.0613,10.0,-11.75,11144222 
WAVCIS,ioos:station:WAVCIS:CSI03:1,2016-07-16T06:00:00Z,29.4412,-92.0613,10.0,-11.97,11144222 
WAVCIS,ioos:station:WAVCIS:CSI03:1,2016-07-16T07:00:00Z,29.4412,-92.0613,10.0,-11.41,11144222 
WAVCIS,ioos:station:WAVCIS:CSI03:1,2016-07-16T08:00:00Z,29.4412,-92.0613,10.0,-10.95,11144222 
WAVCIS,ioos:station:WAVCIS:CSI03:1,2016-07-16T09:00:00Z,29.4412,-92.0613,10.0,-10.86,11144222 